Regional Weather Roundup
Issued by NWS Binghamton, NY

Home | Current Version | Previous Version | Text Only | Print | Product List | Glossary On
Versions: 1 2 3 4 5 6 7 8 9 10 11 12 13 14 15 16 17 18 19 20 21 22 23 24 25 26 27 28 29 30 31 32 33 34 35 36 37 38 39 40 41 42 43 44 45 46 47 48 49 50
000
ASUS41 KBGM 300410
RWRBGM
RWRBGM
BINGHAMTON REGIONAL WEATHER ROUNDUP
NATIONAL WEATHER SERVICE BINGHAMTON NY
1100 PM EST THU JAN 29 2015

Note: "fair" indicates few or no clouds below 12,000 feet with no
significant weather and/or obstructions to visibility.

* = Station(s) that does not report precipitation, such as rain,
snow, etc, also no thunder or fog.

!NYZ009-015>018-022>025-036-037-044>046-055>057-062-300500
...CENTRAL NEW YORK...

CITY           SKY/WX    TMP DP  RH WIND       PRES   REMARKS
BINGHAMTON     CLOUDY    23  20  88 S9        29.80F WCI  13
CORTLAND       FLURRIES  28  23  80 SW5       29.81F WCI  23
DANSVILLE      LGT SNOW  30  24  78 S6        29.79R WCI  24
ELMIRA         LGT SNOW  27  23  85 CALM      29.82F FOG
ITHACA         FLURRIES  27  21  77 S10       29.81F WCI  17
HAMILTON       CLOUDY    27  21  80 S12       29.82  WCI  16
MONTICELLO     CLOUDY    21  19  93 SE6       29.91F WCI  14
NORWICH        FLURRIES  25  19  80 S15       29.85F WCI  12
ONEONTA        LGT SNOW  21  18  86 S5        29.81F WCI  15
PENN YAN       LGT SNOW  27  22  81 S12       29.78S WCI  17
ROME           MIX PCPN  27  20  75 SE14      29.87S WCI  16
SIDNEY         MIX PCPN  25  21  86 CALM      29.86F
SYRACUSE       FLURRIES  28  23  81 S8        29.80F WCI  20
$$

!PAZ038>040-043-044-047-048-072-300500
...NORTHEAST PENNSYLVANIA...

CITY           SKY/WX    TMP DP  RH WIND       PRES   REMARKS
HAZLETON       LGT SNOW  27  23  86 S5        29.89F WCI  21
SCRANTON       CLOUDY    28  20  71 SW6       29.88F WCI  22
TOWANDA*         N/A     28  21  74 S7        29.86F WCI  21
$$
&&
KEY
WCI = WIND CHILL INDEX
VSB = VISIBILITY
HX  = HEAT INDEX
$$



USA.gov is the U.S. government's official web portal to all federal, state and local government web resources and services.